Wind_Speed
20 17 17 18 18 23 20 19 18 18 19 17 17 17 18 20 19 19 19 21 22 23 24 24 26 27 29 31 33 35 38 40 42 44 46 47 50 55
31 22 21 25 21 23 19 23 21 21 21 17 16 19 18 19 20 20 20 21 22 23 24 26 27 28 30 32 35 36 39 41 43 46 48 50 52 56
35 33 31 23 23 19 18 24 25 24 21 18 17 20 20 19 21 22 21 21 21 23 24 26 28 29 31 33 35 38 40 42 45 48 51 53 54 57
36 38 29 21 20 17 22 23 24 24 23 22 20 19 20 20 20 21 21 21 21 23 24 27 28 29 31 34 36 38 40 43 46 48 51 53 55 58
34 26 25 20 17 17 20 22 23 24 24 23 22 21 20 21 21 21 21 23 23 24 24 26 27 29 31 34 36 37 40 43 46 49 52 54 57 59
26 23 19 17 14 17 24 24 25 24 24 23 21 21 21 22 21 21 21 21 23 24 25 26 27 30 32 34 36 38 39 42 44 49 53 56 58 60
26 33 27 24 27 24 24 24 27 25 23 23 23 22 22 21 22 21 22 23 23 23 25 24 26 29 32 35 36 37 39 41 43 48 53 57 59 63
11 21 23 24 26 23 22 23 23 25 25 23 23 23 22 21 22 22 23 24 23 22 24 24 26 29 31 34 36 38 40 42 44 47 52 57 61 65
15 18 22 20 19 22 22 22 23 24 26 24 23 21 22 22 23 23 25 25 24 24 23 25 25 28 30 32 35 38 41 44 47 48 52 58 62 68
17 22 22 22 22 22 21 23 23 24 25 24 23 23 23 24 23 24 26 26 27 26 26 26 28 26 28 31 35 37 41 44 48 51 55 59 63 69
20 22 22 22 22 23 23 24 23 25 25 24 25 24 24 25 25 26 27 28 27 29 28 30 33 31 26 27 34 37 41 46 50 53 55 59 65 70
22 20 20 21 22 25 25 24 24 25 27 27 26 26 26 25 26 27 29 29 28 29 30 31 34 40 40 30 34 40 43 48 51 54 55 59 65 71
26 22 20 22 25 28 27 25 24 28 29 28 27 27 27 27 27 28 30 29 28 29 32 34 34 36 39 43 39 42 45 50 53 56 56 58 64 71
30 26 25 25 28 28 27 25 26 28 30 30 29 29 29 29 30 29 31 30 28 29 31 34 36 38 40 42 42 46 47 49 54 57 58 59 64 70
32 29 29 29 28 28 28 29 28 28 29 30 30 32 31 32 30 29 31 30 29 29 31 34 35 35 39 41 45 47 53 53 55 59 60 60 66 70
31 33 30 31 35 28 28 31 30 29 31 29 31 35 33 31 29 30 32 31 29 29 32 33 35 37 37 38 42 45 48 52 55 57 59 58 64 69
39 38 35 32 31 26 28 31 32 31 32 30 33 33 31 29 28 32 32 30 29 28 30 33 33 34 36 40 41 43 47 49 52 56 59 61 64 69
44 46 41 41 34 30 28 32 34 36 33 34 36 34 30 27 30 34 33 30 29 30 30 32 33 32 31 30 38 45 44 48 52 56 57 61 65 68
45 46 46 44 39 36 36 35 34 36 37 39 35 34 30 31 34 34 32 30 30 30 30 32 34 36 35 34 31 41 47 48 53 56 58 60 65 67
48 49 46 45 44 41 39 39 38 39 41 42 37 34 34 35 36 34 31 31 31 30 30 31 34 35 36 37 37 36 42 47 52 56 58 59 63 64
45 46 48 45 42 40 40 40 39 40 41 43 39 38 37 40 37 34 33 32 30 29 28 29 33 34 34 35 37 37 36 40 45 52 55 59 65 66
38 43 45 47 50 49 43 41 39 42 44 44 39 37 39 40 38 34 34 33 30 29 27 28 31 32 32 34 36 38 39 39 41 43 48 54 60 61
38 39 38 42 45 47 47 43 40 41 42 43 40 34 39 43 35 35 35 32 30 28 27 27 30 31 31 32 34 36 38 41 45 46 45 50 52 50
Wind_Direction
280 284 286 278 269 264 269 272 272 274 277 288 300 296 303 309 313 314 317 316 320 322 323 325 328 330 337 337 338 337 334 335 335 334 335 336 337 340
281 275 280 279 264 260 270 279 276 277 281 292 297 294 302 305 307 311 316 319 321 322 324 326 326 336 338 338 337 335 334 335 335 336 335 334 339 340
268 270 265 264 256 258 264 274 278 279 290 293 289 294 302 304 309 312 315 316 316 318 322 323 331 336 337 336 333 334 336 336 338 337 335 335 340 340
264 262 252 261 260 271 269 268 276 287 289 290 289 292 297 302 305 307 310 312 316 319 322 326 330 334 335 333 332 334 335 338 338 335 335 335 340 342
270 253 256 250 261 268 267 274 273 276 282 285 288 293 293 298 298 302 308 312 316 319 321 322 329 330 330 330 332 333 337 339 337 334 334 338 341 341
243 235 230 238 250 260 262 273 273 273 276 279 282 286 290 293 296 300 304 310 312 315 320 323 326 326 328 330 332 333 337 337 337 335 337 339 339 340
252 241 239 236 241 252 259 265 268 271 275 280 282 285 287 290 294 299 302 305 308 312 316 320 322 325 327 329 330 334 335 335 337 338 340 338 340 341
269 260 252 248 260 264 264 263 268 276 276 279 281 284 288 290 293 296 299 300 305 308 310 318 321 323 325 327 331 334 334 335 339 342 341 339 342 342
253 258 261 263 269 270 272 268 270 274 279 282 284 287 284 285 288 293 295 299 301 305 310 315 319 321 323 328 331 334 335 337 341 343 343 343 342 345
265 270 272 274 275 274 274 274 275 275 276 279 280 279 282 287 290 292 294 297 299 304 310 315 314 316 323 329 330 334 336 340 341 344 347 343 344 346
274 275 275 274 275 277 278 276 277 277 277 278 278 281 283 285 290 291 294 296 299 305 310 313 311 313 322 328 329 335 339 341 343 346 346 344 345 345
283 277 271 273 276 279 278 278 279 277 276 274 275 280 282 286 288 291 292 294 298 301 305 310 312 316 321 331 333 337 341 342 344 345 346 347 345 345
275 276 268 272 275 277 278 280 275 268 271 273 277 279 282 284 285 287 288 290 295 300 305 309 312 316 320 325 334 336 340 341 342 343 347 348 346 345
271 271 274 274 273 275 278 275 268 271 275 278 282 286 283 283 283 284 286 289 294 298 303 307 311 317 320 324 332 334 337 341 341 342 346 348 347 346
270 275 274 279 273 279 285 283 276 278 274 279 283 283 280 278 281 286 284 287 292 297 301 304 309 315 319 324 329 334 335 338 340 343 344 349 346 347
268 269 273 281 275 281 284 285 284 278 275 275 282 279 279 282 281 284 285 287 290 295 299 303 307 312 316 322 325 331 332 334 338 340 342 348 347 349
263 268 265 271 271 279 285 284 281 276 275 271 276 275 276 277 284 284 285 286 290 291 295 299 305 311 316 322 325 324 327 333 337 340 344 346 351 348
266 268 263 267 260 269 272 278 280 276 276 269 272 270 272 272 281 282 282 285 285 288 293 296 301 305 309 315 319 321 328 331 337 342 345 346 349 348
261 262 267 266 264 279 276 276 277 275 272 272 266 269 266 270 276 279 280 282 283 287 293 298 304 307 312 319 327 322 328 335 338 343 345 348 347 348
257 261 267 266 269 273 276 279 279 273 271 272 271 265 264 267 274 277 276 277 280 286 293 299 303 307 314 320 325 329 330 336 340 341 343 347 345 348
250 255 261 265 267 268 267 268 273 275 270 268 268 263 262 263 275 275 273 273 278 284 291 297 300 306 313 318 321 325 331 337 341 340 344 345 345 347
265 259 256 259 264 267 269 270 270 270 271 269 269 263 263 261 274 271 270 273 276 280 287 293 298 304 310 315 319 324 330 337 341 343 344 345 348 350
266 265 265 263 260 262 266 267 266 267 268 270 271 262 256 258 264 266 265 267 271 277 284 290 296 301 308 313 318 323 331 335 338 342 346 346 351 355
Height
3146 3145 3145 3144 3145 3143 3143 3145 3146 3146 3144 3145 3144 3142 3140 3137 3135 3134 3132 3129 3126 3123 3119 3116 3113 3108 3102 3097 3091 3085 3079 3072 3065 3056 3049 3041 3033 3021
3141 3139 3140 3142 3140 3139 3136 3138 3140 3141 3140 3141 3140 3137 3137 3134 3131 3128 3127 3125 3122 3119 3116 3112 3108 3103 3097 3091 3086 3080 3074 3066 3059 3051 3042 3035 3025 3014
3133 3132 3133 3135 3135 3134 3132 3134 3133 3134 3136 3136 3136 3133 3132 3131 3128 3126 3124 3121 3118 3114 3111 3107 3103 3098 3093 3088 3082 3076 3069 3061 3053 3044 3035 3027 3017 3008
3125 3125 3125 3127 3129 3128 3130 3130 3128 3128 3130 3130 3129 3128 3126 3125 3123 3121 3119 3117 3115 3111 3107 3103 3098 3094 3089 3084 3078 3071 3064 3056 3048 3040 3030 3022 3011 3001
3117 3117 3119 3122 3125 3125 3126 3124 3124 3125 3125 3126 3124 3123 3122 3121 3119 3117 3115 3112 3110 3107 3104 3099 3093 3089 3085 3080 3073 3066 3059 3050 3043 3035 3025 3014 3003 2994
3109 3113 3114 3117 3120 3121 3120 3120 3120 3121 3121 3121 3121 3120 3118 3117 3115 3113 3111 3109 3107 3103 3101 3096 3091 3086 3081 3076 3068 3061 3054 3047 3039 3030 3018 3007 2997 2987
3105 3107 3108 3111 3111 3112 3115 3115 3113 3115 3116 3116 3116 3115 3114 3113 3111 3109 3106 3104 3103 3101 3095 3093 3088 3082 3076 3071 3064 3056 3049 3042 3033 3023 3012 3001 2990 2978
3102 3106 3108 3109 3110 3109 3110 3110 3110 3108 3110 3112 3111 3111 3109 3107 3105 3104 3102 3100 3098 3096 3091 3088 3084 3079 3072 3065 3059 3052 3044 3036 3028 3017 3006 2994 2982 2969
3100 3102 3104 3103 3103 3104 3104 3105 3104 3105 3104 3105 3106 3105 3104 3101 3100 3099 3098 3095 3093 3091 3088 3083 3081 3076 3069 3061 3053 3047 3039 3030 3021 3012 3001 2986 2975 2959
3096 3097 3098 3098 3098 3097 3098 3099 3099 3099 3099 3099 3099 3099 3097 3096 3094 3094 3092 3091 3087 3085 3082 3079 3075 3073 3066 3058 3049 3043 3033 3024 3015 3005 2993 2980 2967 2951
3090 3091 3092 3093 3092 3091 3092 3093 3094 3093 3093 3093 3093 3093 3091 3089 3088 3087 3087 3085 3083 3079 3075 3071 3066 3064 3062 3055 3046 3038 3029 3018 3007 2996 2987 2973 2958 2945
3082 3085 3086 3087 3085 3085 3086 3087 3088 3088 3088 3087 3086 3085 3085 3084 3083 3082 3081 3079 3077 3073 3069 3066 3060 3050 3045 3049 3040 3030 3021 3011 3001 2991 2981 2966 2951 2938
3075 3079 3081 3081 3079 3078 3079 3081 3082 3081 3080 3080 3080 3079 3078 3078 3076 3075 3074 3072 3070 3067 3061 3058 3055 3048 3041 3031 3030 3022 3014 3004 2994 2984 2974 2962 2946 2931
3069 3070 3073 3073 3073 3071 3072 3074 3075 3074 3074 3074 3074 3073 3073 3073 3072 3069 3067 3065 3063 3061 3056 3052 3047 3041 3034 3027 3021 3013 3007 2999 2988 2978 2967 2955 2941 2925
3062 3063 3063 3065 3066 3066 3066 3065 3066 3066 3067 3067 3067 3067 3067 3066 3065 3063 3061 3059 3057 3054 3050 3046 3042 3037 3030 3022 3013 3007 2995 2990 2981 2970 2961 2950 2934 2920
3053 3056 3056 3056 3056 3058 3058 3057 3057 3059 3060 3060 3061 3060 3059 3060 3058 3056 3055 3053 3051 3048 3044 3040 3036 3031 3026 3020 3011 3004 2997 2985 2976 2967 2956 2947 2931 2915
3041 3041 3045 3047 3048 3049 3050 3049 3049 3050 3052 3052 3053 3052 3051 3051 3051 3048 3048 3046 3045 3042 3039 3035 3031 3027 3021 3013 3006 3001 2991 2982 2973 2962 2950 2939 2927 2910
3031 3030 3034 3037 3039 3040 3041 3041 3041 3041 3042 3044 3044 3043 3043 3042 3043 3041 3040 3039 3037 3035 3032 3028 3025 3023 3019 3016 3004 2993 2989 2977 2967 2956 2946 2931 2919 2906
3019 3020 3023 3026 3030 3032 3032 3032 3032 3032 3032 3031 3033 3034 3034 3033 3033 3033 3033 3031 3029 3027 3024 3020 3017 3013 3009 3005 3004 2990 2979 2971 2960 2951 2940 2928 2915 2902
3010 3010 3012 3015 3018 3021 3022 3022 3022 3022 3021 3021 3021 3024 3025 3024 3024 3025 3024 3022 3021 3020 3017 3014 3011 3006 3001 2995 2991 2989 2976 2966 2956 2946 2934 2925 2913 2899
2999 3000 3001 3002 3004 3006 3009 3011 3011 3011 3010 3009 3010 3012 3015 3014 3015 3016 3015 3014 3013 3013 3010 3008 3005 3000 2995 2990 2985 2981 2976 2967 2958 2943 2932 2920 2905 2894
2987 2988 2988 2989 2990 2992 2995 2998 2998 2998 2998 2998 2999 3001 3003 3003 3005 3006 3006 3006 3006 3005 3003 3001 2998 2994 2989 2984 2980 2974 2968 2963 2957 2946 2934 2922 2905 2889
2974 2975 2976 2977 2977 2976 2977 2982 2985 2985 2985 2985 2988 2989 2991 2991 2995 2996 2997 2997 2998 2997 2996 2994 2992 2988 2984 2981 2975 2969 2963 2956 2947 2942 2935 2923 2912 2897